Date,TemperatureHighF,TemperatureAvgF,TemperatureLowF,DewpointHighF,DewpointAvgF,DewpointLowF,HumidityHigh,HumidityAvg,HumidityLow,PressureMaxIn,PressureMinIn,WindSpeedMaxMPH,WindSpeedAvgMPH,GustSpeedMaxMPH,PrecipitationSumIn
2013-1-1,50.7,48.3,45.1,50.2,43.3,31.2,98,84,52,26.69,0.00,6,1,6,1.22
2013-1-2,50.7,45.3,39.6,50.2,41.8,36.7,98,88,73,26.69,26.69,10,5,10,0.04
2013-1-3,47.7,40.2,36.0,37.6,31.9,22.0,92,74,49,26.69,26.69,12,5,12,0.00
2013-1-4,54.3,40.7,30.7,29.8,22.6,15.3,87,52,26,26.69,26.69,14,4,14,0.00
2013-1-5,49.5,39.8,31.1,36.0,24.6,18.6,88,57,32,26.69,26.69,8,2,8,0.00
2013-1-6,47.8,42.6,39.6,37.8,34.0,31.4,88,72,54,26.69,26.69,17,7,17,0.00
2013-1-7,56.5,45.6,36.1,33.4,26.8,23.0,80,50,28,26.69,26.69,13,6,13,0.00
2013-1-8,51.1,46.3,40.3,38.1,31.6,25.9,73,57,46,26.69,0.00,13,6,13,0.00
2013-1-9,62.2,54.4,49.8,51.5,45.6,35.5,95,73,56,26.69,26.69,8,3,8,0.00
2013-1-10,65.7,59.4,52.3,58.4,51.4,48.4,98,76,55,26.69,0.00,15,5,15,0.00
2013-1-11,65.1,61.1,58.6,63.0,60.3,58.1,98,97,86,26.69,0.00,15,4,15,0.35
2013-1-12,72.5,61.5,55.6,65.4,58.6,55.0,98,91,63,26.69,26.69,8,1,8,0.00
2013-1-13,69.3,62.3,56.3,60.8,58.0,55.7,98,87,64,26.69,26.69,15,4,15,0.04
2013-1-14,64.6,59.1,51.4,64.0,58.5,50.7,98,98,91,26.69,26.69,13,4,13,0.87
2013-1-15,63.0,56.8,50.9,62.4,56.2,50.4,98,98,98,26.69,26.69,12,2,12,0.87
2013-1-16,63.1,57.2,53.8,62.6,56.5,53.2,98,97,85,26.69,26.69,10,2,10,0.55
2013-1-17,57.2,50.0,38.5,56.0,48.6,31.6,98,95,75,26.69,26.69,30,5,30,1.18
2013-1-18,57.0,43.1,35.1,36.8,27.5,16.9,91,58,25,26.69,0.00,10,4,10,0.00
2013-1-19,54.1,42.3,35.4,38.3,30.3,20.4,98,68,27,26.69,0.00,10,2,10,0.00
2013-1-20,61.9,47.6,36.1,37.2,31.5,25.3,94,58,27,26.69,26.69,15,4,15,0.00
2013-1-21,57.6,45.3,36.7,36.8,25.3,11.5,92,50,28,26.69,26.69,20,6,20,0.00
2013-1-22,43.9,36.2,29.5,14.4,10.6,7.6,46,35,28,26.69,26.69,17,8,17,0.00
2013-1-23,50.2,40.5,30.2,33.8,19.2,7.4,66,43,32,26.69,26.69,18,6,18,0.00
2013-1-24,52.2,46.5,36.0,38.2,24.0,11.1,70,43,24,26.69,26.69,17,8,17,0.00
2013-1-25,37.6,31.3,28.2,34.0,17.7,5.6,92,60,33,26.69,26.69,18,7,18,0.00
2013-1-26,54.9,43.4,37.2,38.1,31.9,25.0,98,68,36,26.69,26.69,12,5,12,0.00
2013-1-27,47.5,43.2,37.2,34.9,29.2,25.1,87,59,47,26.69,26.69,13,8,13,0.00
2013-1-28,50.9,45.8,42.8,44.1,35.1,26.3,98,67,50,26.69,26.69,10,4,10,0.00
2013-1-29,70.9,56.2,42.8,59.9,50.6,42.3,98,83,50,26.69,26.69,10,2,10,0.00
2013-1-30,66.2,58.9,43.3,63.3,55.0,33.5,98,87,68,26.69,0.00,29,11,29,2.52
2013-1-31,48.6,40.9,34.9,34.4,20.5,16.4,71,45,29,26.69,26.69,30,10,30,0.00
2013-2-1,43.0,36.5,29.8,25.9,14.7,4.6,59,41,29,26.69,26.69,24,8,24,0.00
2013-2-2,48.0,37.1,27.1,39.0,22.1,8.2,94,59,27,29.91,0.00,23,5,23,0.35
2013-2-3,54.1,42.0,35.2,38.0,29.0,19.7,95,65,29,29.91,29.91,21,7,21,0.08
2013-2-4,48.7,42.5,34.5,34.4,26.2,21.1,77,54,34,29.91,29.91,8,2,8,0.00
2013-2-5,53.4,46.0,37.0,38.8,32.7,27.7,88,61,46,29.91,29.91,12,4,12,0.00
2013-2-8,57.6,48.8,39.9,42.2,27.9,23.0,62,45,33,29.91,29.91,13,6,13,0.24
2013-2-9,65.3,53.3,38.7,35.9,27.7,19.5,78,42,18,29.91,29.91,9,2,9,0.00
2013-2-10,57.4,50.1,42.1,47.5,40.9,25.4,98,75,35,29.91,29.91,17,8,17,1.30
2013-2-11,55.9,51.3,47.7,55.0,50.4,45.9,98,97,83,29.91,29.91,12,3,12,0.28
2013-2-12,57.7,49.7,45.5,45.9,37.9,28.3,92,66,33,29.91,29.91,15,3,15,0.16
2013-2-13,51.6,44.7,37.8,47.2,40.3,31.5,98,85,67,29.91,29.91,24,8,24,0.04
2013-2-14,56.7,44.1,35.6,36.4,29.9,24.7,84,60,29,29.91,29.91,13,6,13,0.00
2013-2-15,60.6,47.6,34.9,40.6,33.3,25.3,98,64,27,29.91,29.91,17,5,17,0.00
2013-2-16,43.2,37.3,29.8,32.7,18.5,8.2,72,48,29,29.91,29.91,24,8,24,0.00
2013-2-17,45.0,33.8,24.8,23.5,11.1,4.3,66,40,25,29.91,29.91,20,7,20,0.00
2013-2-18,57.4,42.8,30.2,27.8,23.8,17.2,83,52,26,29.91,29.91,16,5,16,0.00
2013-2-19,56.5,45.1,39.2,43.1,28.7,12.6,98,59,27,29.91,29.91,24,6,24,0.31
2013-2-20,53.4,41.3,32.2,18.0,12.4,8.2,47,31,18,29.91,29.91,18,7,18,0.00
2013-2-21,53.4,40.7,34.0,23.6,16.2,10.9,61,38,23,29.91,29.91,13,4,13,0.00
2013-2-22,53.4,53.4,53.4,16.5,16.5,16.5,23,23,23,29.91,29.91,6,6,6,0.00
2013-2-23,53.4,53.4,53.4,16.5,16.5,16.5,23,23,23,29.91,29.91,6,6,6,0.00
2013-2-24,53.4,53.4,53.4,16.5,16.5,16.5,23,23,23,29.91,29.91,6,6,6,0.00
2013-2-25,53.4,53.4,53.4,16.5,16.5,16.5,23,23,23,29.91,29.91,6,6,6,0.00
2013-2-26,53.4,53.4,53.4,16.5,16.5,16.5,23,23,23,29.91,29.91,6,6,6,0.00
2013-2-27,57.0,52.4,48.7,29.4,24.8,16.5,47,35,23,29.91,29.91,17,8,17,0.00
2013-2-28,48.6,40.8,36.1,29.2,21.1,17.6,51,45,38,29.91,29.91,20,9,20,0.00
2013-3-1,41.2,38.0,34.2,26.2,22.1,18.3,64,52,44,29.91,29.91,16,8,16,0.00
2013-3-2,41.9,36.8,33.4,28.4,22.6,14.7,78,57,40,29.91,29.91,17,9,17,0.00
2013-3-3,42.6,34.7,30.4,15.3,12.6,10.0,51,40,30,29.91,29.91,18,9,18,0.00
2013-3-4,58.1,43.6,29.8,32.9,19.5,11.5,66,39,25,29.91,29.91,13,4,13,0.00
2013-3-5,63.0,49.9,38.7,54.0,36.0,18.8,89,59,44,29.91,29.91,28,7,28,0.31
2013-3-6,38.8,35.9,32.7,23.1,18.9,12.5,64,50,42,29.91,29.91,25,11,25,0.00
2013-3-7,58.5,42.4,31.5,27.3,23.6,20.0,78,50,26,29.91,29.91,16,5,16,0.00
2013-3-8,62.8,45.8,32.9,33.3,25.0,17.9,85,49,23,29.91,29.91,12,3,12,0.00
2013-3-9,63.0,51.2,40.1,38.5,26.2,18.6,71,40,24,29.91,29.91,10,3,11,0.00
2013-3-10,67.5,58.1,48.4,37.6,28.8,24.2,59,33,23,29.91,29.91,15,6,15,0.00
2013-3-11,61.7,55.5,53.2,54.4,47.6,36.9,98,76,46,29.91,29.91,21,7,21,1.26
2013-3-12,58.5,49.3,39.6,53.0,33.5,24.7,98,59,29,29.91,29.91,20,9,20,0.04
2013-3-13,52.2,45.0,37.8,27.9,20.7,13.5,58,39,26,29.91,29.91,25,9,25,0.00
2013-3-14,54.5,41.8,30.6,20.8,14.8,10.9,48,34,23,29.91,29.91,16,7,16,0.00
2013-3-15,71.8,55.7,37.0,36.1,30.3,15.7,83,41,23,29.91,29.91,22,7,22,0.00
2013-3-16,75.0,63.7,54.1,37.9,34.8,30.5,51,36,21,29.91,29.91,23,8,23,0.00
2013-3-17,69.1,60.3,49.8,46.9,42.2,33.7,80,53,34,29.91,29.91,13,5,13,0.00
2013-3-18,58.3,48.1,44.6,55.3,44.9,39.6,98,89,67,29.91,29.91,15,6,15,0.20
2013-3-19,63.3,53.2,45.5,47.8,30.8,18.1,98,51,23,29.91,29.91,20,6,20,0.00
2013-3-20,57.0,49.1,41.4,27.8,16.9,11.0,50,28,18,29.91,29.91,21,6,21,0.00
2013-3-21,46.2,39.2,31.5,27.6,14.7,7.8,54,37,27,29.91,29.91,21,9,21,0.00
2013-3-22,51.1,43.6,36.0,30.9,21.2,12.9,52,41,29,29.91,29.91,9,4,9,0.00
2013-3-23,52.2,47.2,42.3,48.4,42.5,29.7,98,85,50,29.91,29.91,15,5,15,0.75
2013-3-24,49.1,47.7,43.3,47.7,43.8,23.7,98,87,45,29.91,29.91,22,9,22,1.18
2013-3-25,43.3,37.6,33.8,26.1,19.2,15.4,59,47,39,29.91,29.91,25,13,25,0.00
2013-3-26,41.5,36.1,31.8,26.1,20.8,16.8,74,54,38,29.91,29.91,22,10,22,0.00
2013-3-27,53.1,42.2,30.6,24.8,19.5,14.2,73,43,26,29.91,29.91,18,7,18,0.00
2013-3-28,61.5,47.2,34.2,32.7,23.1,14.2,72,42,19,29.91,29.91,22,4,22,0.00
2013-3-29,64.6,50.9,37.2,36.6,29.0,19.6,88,48,21,29.91,29.91,10,2,11,0.00
2013-3-30,71.6,58.4,46.8,54.2,37.4,28.1,95,49,24,29.91,29.91,17,4,17,0.35
2013-3-31,66.0,59.1,55.0,58.3,53.5,48.9,98,83,55,29.91,29.91,16,4,16,0.31
2013-4-1,69.3,61.9,54.0,56.1,41.5,28.0,98,55,23,29.91,29.91,22,6,22,0.00
2013-4-2,65.7,54.8,45.9,41.5,29.2,20.5,80,41,23,29.91,29.91,13,5,13,0.00
2013-4-3,59.2,53.0,46.6,44.0,27.9,20.0,87,41,26,29.91,29.91,15,5,15,0.28
2013-4-4,48.7,47.5,46.8,42.4,38.2,31.9,84,71,53,29.91,29.91,18,9,18,0.12
2013-4-7,75.7,65.4,57.9,49.1,41.8,33.8,70,45,24,29.91,29.91,9,2,9,0.35
2013-4-8,76.1,64.0,55.2,53.7,48.0,42.5,85,60,31,29.91,29.91,13,3,13,0.00
2013-4-9,83.1,68.1,54.7,58.6,51.2,44.7,96,60,28,29.91,29.91,9,2,9,0.00
2013-4-10,83.1,69.9,57.2,62.5,52.8,47.1,98,60,29,29.91,29.91,13,3,13,0.00
2013-4-11,77.9,68.1,60.4,66.9,56.6,49.1,98,69,42,29.91,29.91,23,5,23,1.22
2013-4-12,68.0,62.9,57.9,62.6,44.4,27.8,98,56,24,29.91,29.91,22,9,22,0.24
2013-4-13,60.1,60.1,60.1,35.0,35.0,35.0,39,39,39,29.91,29.91,4,4,4,0.00
2013-4-14,60.1,59.3,56.8,52.7,40.3,35.0,86,52,39,29.91,29.91,17,5,17,0.04
2013-4-15,75.0,65.0,56.3,59.9,54.1,48.5,98,71,42,29.91,29.91,9,4,9,0.00
2013-4-16,83.3,68.3,61.7,62.2,57.3,51.4,98,71,34,29.91,29.91,9,3,9,0.00
2013-4-17,84.4,71.0,63.0,63.7,57.7,50.6,94,67,32,29.91,29.91,23,4,23,0.00
2013-4-18,79.5,70.2,62.2,61.8,55.7,48.2,97,64,36,29.91,29.91,17,7,17,0.00
2013-4-19,69.4,59.8,47.7,63.5,51.4,30.7,90,74,51,29.91,29.91,20,10,20,0.83
2013-4-20,66.0,54.2,42.3,33.5,24.5,19.7,59,34,18,29.91,29.91,18,6,18,0.00
2013-4-21,66.4,58.2,48.2,35.9,29.3,23.8,50,34,24,29.91,29.91,18,9,18,0.00
2013-4-22,70.2,58.8,49.5,37.3,33.6,29.7,59,40,26,29.91,29.91,20,9,20,0.00
2013-4-23,75.4,61.3,50.0,48.3,33.7,25.5,69,37,23,29.91,29.91,13,5,13,0.00
2013-4-24,73.8,63.4,55.2,62.2,52.1,44.1,98,70,35,29.91,29.91,17,5,17,0.12
2013-4-25,73.8,59.3,46.6,57.3,35.7,19.5,97,50,13,29.91,29.91,15,6,15,0.00
2013-4-26,77.0,61.6,47.1,46.1,33.5,25.7,71,38,20,29.91,29.91,17,4,17,0.00
2013-4-27,64.8,58.6,54.7,55.0,48.7,35.6,94,71,34,29.91,29.91,20,8,20,0.63
2013-4-28,57.7,55.8,54.0,57.2,54.0,49.4,98,94,80,29.91,29.91,15,7,15,2.32
2013-4-29,72.3,61.0,55.6,57.8,54.2,47.0,98,81,41,29.91,29.91,9,4,9,0.00
2013-4-30,78.8,64.8,55.2,59.5,55.3,45.2,98,76,34,29.91,29.91,10,3,10,0.00
2013-5-1,68.9,63.9,60.4,59.9,52.0,46.6,92,67,46,29.91,29.91,20,10,20,0.00
2013-5-2,64.4,60.6,58.8,58.1,55.2,52.1,95,83,68,29.91,29.91,20,11,20,0.00
2013-5-3,60.6,59.0,57.7,57.0,54.0,46.9,96,84,61,29.91,29.91,22,12,22,0.12
2013-5-4,58.3,53.9,49.8,53.1,50.0,43.2,98,87,60,29.91,29.91,21,11,21,2.05
2013-5-5,63.5,56.1,51.3,54.2,51.3,47.2,96,85,56,29.91,29.91,17,8,17,2.20
2013-5-6,56.7,52.5,48.0,48.6,44.1,38.7,94,74,54,29.91,29.91,15,6,15,0.00
2013-5-7,68.4,59.9,52.0,52.4,45.9,38.1,96,64,36,29.91,29.91,14,5,14,0.04
2013-5-8,75.7,64.1,54.3,54.9,48.2,41.7,90,60,32,29.91,29.91,17,5,17,0.00
2013-5-9,80.4,67.8,57.0,62.5,52.8,42.6,98,65,28,29.91,29.91,15,3,15,0.00
2013-5-10,77.0,67.2,58.1,61.4,56.1,48.1,98,71,37,29.91,29.91,15,3,15,0.00
2013-5-11,75.6,67.6,59.7,60.7,56.7,50.8,95,69,43,29.91,29.91,13,5,13,0.00
2013-5-12,67.1,61.3,54.3,57.2,37.7,23.3,81,46,23,29.91,29.91,21,8,21,0.00
2013-5-13,67.3,58.4,47.5,39.7,28.7,23.0,58,34,20,29.91,29.91,20,7,20,0.00
2013-5-14,78.1,63.9,48.6,54.1,41.0,29.2,82,47,24,29.91,29.91,17,4,17,0.00
2013-5-15,84.7,72.2,60.8,58.3,48.1,40.9,73,46,22,29.91,29.91,14,5,14,0.00
2013-5-16,84.2,70.1,62.1,59.5,54.6,47.5,85,61,30,29.91,29.91,10,2,10,0.00
2013-5-17,83.8,71.1,61.3,63.9,55.3,40.8,96,62,25,29.91,29.91,9,2,9,0.04
2013-5-18,73.2,68.9,65.8,66.0,62.3,56.5,98,80,58,29.91,29.91,13,4,13,0.24
2013-5-19,68.9,66.7,64.8,67.1,64.6,62.3,98,93,82,29.91,29.91,22,6,22,5.47
2013-5-20,86.0,73.4,64.4,69.9,64.6,58.6,98,77,45,29.91,29.91,9,4,9,0.00
2013-5-21,90.1,77.4,68.4,73.2,65.0,55.7,98,70,32,29.91,29.91,15,3,15,0.00
2013-5-22,85.3,75.5,68.0,67.0,63.0,45.9,89,67,31,29.91,29.91,16,4,16,0.00
2013-5-23,82.4,73.8,67.3,68.7,56.7,45.3,98,61,31,29.91,29.91,18,7,18,0.00
2013-5-24,75.9,67.6,60.1,53.0,43.0,32.4,77,44,22,29.91,29.91,17,8,17,0.00
2013-5-25,77.5,64.4,53.1,46.6,38.7,33.6,76,41,21,29.91,29.91,13,5,13,0.00
2013-5-26,80.8,79.9,78.3,49.8,46.6,42.9,34,31,27,29.91,29.91,6,3,6,0.00
2013-5-27,88.7,80.4,72.5,59.6,52.4,46.5,64,39,24,29.91,29.91,9,5,9,0.00
2013-5-28,86.0,76.6,67.8,59.9,54.8,48.6,71,49,29,29.91,29.91,12,5,12,0.00
2013-5-29,83.3,78.1,67.8,61.6,56.5,51.2,76,49,35,29.91,29.91,12,5,12,0.00
2013-5-30,83.8,73.9,66.7,65.8,60.0,53.8,95,64,37,29.91,29.91,10,6,11,0.00
2013-5-31,86.2,76.3,68.9,65.1,59.9,52.4,86,60,32,29.91,29.91,13,5,13,0.00
2013-6-1,85.5,76.1,69.1,66.4,61.1,56.6,84,61,39,29.91,29.91,16,6,16,0.00
2013-6-2,84.6,75.6,71.4,65.7,63.1,59.4,78,66,43,29.91,29.91,20,7,20,0.00
2013-6-3,81.7,74.6,71.1,63.2,61.2,56.2,73,64,42,29.91,29.91,6,4,6,0.00
2013-6-4,88.7,77.9,66.9,66.8,60.5,55.9,88,59,34,29.91,29.91,8,3,8,0.00
2013-6-5,83.5,76.0,69.1,69.6,65.6,58.2,98,72,47,29.91,29.91,17,7,17,0.00
2013-6-6,79.3,70.7,66.2,70.1,65.7,61.8,98,85,56,29.91,29.91,13,5,13,0.00
2013-6-7,84.0,72.7,68.0,67.1,63.8,55.5,95,76,39,29.91,29.91,15,6,15,0.00
2013-6-8,82.8,72.9,64.6,67.2,61.7,54.7,98,71,40,29.91,29.91,13,6,13,0.00
2013-6-9,74.3,72.6,70.7,69.6,66.2,64.0,94,81,72,29.91,29.91,9,2,9,0.00
2013-6-14,88.2,80.9,74.8,54.8,51.6,45.6,47,37,25,29.91,29.91,10,6,10,0.00
2013-6-15,88.5,77.2,68.2,61.2,51.0,40.0,71,43,19,29.91,29.91,8,4,8,0.00
2013-6-16,89.6,77.3,67.6,71.4,60.9,52.0,93,61,29,29.91,29.91,13,4,13,0.00
2013-6-17,73.6,70.8,68.2,69.7,67.7,64.4,98,90,74,29.91,29.91,15,3,15,0.00
2013-6-18,81.1,73.4,70.0,70.9,66.7,58.4,94,80,51,29.91,29.91,20,6,20,0.00
2013-6-19,82.9,75.2,69.3,69.4,62.2,56.0,97,67,41,29.91,29.91,13,5,13,0.00
2013-6-20,83.8,76.1,69.8,67.1,59.1,50.4,89,58,33,29.91,29.91,15,6,15,0.00
2013-6-21,74.3,74.3,74.3,59.5,59.5,59.5,60,60,60,29.91,29.91,4,4,4,0.00
2013-6-22,74.3,74.3,74.3,59.5,59.5,59.5,60,60,60,29.91,29.91,4,4,4,0.00
2013-6-23,74.3,74.3,74.3,59.5,59.5,59.5,60,60,60,29.91,29.91,4,4,4,0.00
2013-6-24,74.3,74.3,74.3,59.5,59.5,59.5,60,60,60,29.91,29.91,4,4,4,0.00
2013-6-25,87.4,76.3,74.3,70.0,60.6,54.3,83,59,34,29.91,29.91,15,4,15,0.00
2013-6-26,88.0,78.4,72.1,71.2,65.4,57.0,90,67,38,29.91,29.91,13,6,13,0.00
2013-6-29,87.4,85.7,82.9,56.5,52.2,49.4,40,32,28,29.91,29.91,13,6,13,0.00
2013-6-30,88.7,80.0,72.7,65.2,57.6,43.9,77,49,23,29.91,29.91,13,5,13,0.00
2013-7-1,86.4,73.6,68.4,68.5,64.1,54.1,95,75,35,29.91,29.91,17,5,17,0.00
2013-7-2,85.5,79.3,73.2,68.9,60.5,51.0,77,54,31,29.91,29.91,13,6,13,0.00
2013-7-3,77.5,71.3,67.5,72.3,67.4,63.3,98,88,69,29.91,29.91,15,6,15,0.00
2013-7-4,79.2,71.3,67.6,71.5,68.8,65.2,98,92,68,29.91,29.91,13,7,13,0.00
2013-7-5,84.4,74.0,69.8,70.2,65.3,56.9,94,76,40,29.91,29.91,15,6,15,0.00
2013-7-6,85.5,74.4,68.9,71.4,67.6,59.8,98,82,43,29.91,29.91,17,6,17,0.00
2013-7-7,79.9,75.0,71.1,71.4,67.9,62.6,98,79,56,29.91,29.91,9,4,9,0.00
2013-7-8,89.4,78.0,71.8,74.5,69.4,61.5,98,78,42,29.91,29.91,10,4,11,0.00
2013-7-9,89.6,78.7,72.3,73.2,68.2,60.5,98,73,39,29.91,29.91,12,4,12,0.00
2013-7-10,81.1,76.4,73.4,70.9,68.7,64.2,91,78,61,29.91,29.91,8,4,8,0.00
2013-7-11,82.8,76.0,70.7,72.4,67.4,62.1,95,76,51,29.91,29.91,9,3,9,0.00
2013-7-12,90.7,76.1,69.8,72.6,67.2,55.7,96,76,31,29.91,29.91,30,4,30,0.00
2013-7-16,91.9,83.9,74.8,70.9,62.4,53.6,87,53,29,29.91,29.91,6,2,6,0.00
2013-7-17,97.0,80.2,70.7,72.3,66.1,54.5,95,68,27,29.91,29.91,25,3,25,0.00
2013-7-18,92.8,80.5,69.3,72.8,64.2,57.5,95,62,32,29.91,29.91,14,3,14,0.00
2013-7-19,91.4,84.0,74.3,76.9,67.4,59.9,98,62,37,29.91,29.91,9,4,9,0.00
2013-7-20,90.7,90.7,90.7,61.6,61.6,61.6,38,38,38,29.91,29.91,4,4,4,0.00
2013-7-21,90.7,78.7,71.8,68.9,64.7,57.7,90,65,37,29.91,29.91,15,5,15,0.00
2013-7-22,86.2,75.2,71.1,72.8,67.3,59.0,95,78,42,29.91,29.91,17,5,17,0.00
2013-7-23,81.9,74.5,70.7,69.5,65.4,55.4,89,75,41,29.91,29.91,15,6,15,0.00
2013-7-24,86.0,76.3,71.1,71.6,65.4,51.8,92,71,34,29.91,29.91,22,6,22,0.00
2013-7-25,91.9,79.2,70.7,72.4,61.9,50.8,96,60,27,29.91,29.91,13,4,13,0.00
2013-7-26,91.6,77.8,70.9,70.0,63.1,55.6,92,63,30,29.91,29.91,18,6,18,0.00
2013-7-27,80.6,75.6,72.0,69.7,63.9,55.8,91,69,45,29.91,29.91,13,5,13,0.00
2013-7-28,86.9,76.2,69.4,67.5,63.2,53.2,92,67,33,29.91,29.91,12,4,12,0.00
2013-7-29,86.5,75.5,68.5,66.0,55.8,38.8,83,54,21,29.91,29.91,12,5,12,0.00
2013-7-30,90.0,78.3,65.5,64.9,57.1,50.6,88,51,28,29.91,29.91,9,3,9,0.00
2013-7-31,78.6,75.5,72.1,67.6,63.1,57.5,82,66,49,29.91,29.91,12,3,12,0.00
2013-8-1,80.3,75.9,73.6,65.3,63.2,62.1,70,65,57,29.91,29.91,5,2,6,0.00
2013-8-2,81.7,72.8,70.2,67.7,64.4,59.8,89,76,48,29.91,29.91,5,1,6,0.00
2013-8-5,86.7,80.6,74.8,65.8,59.7,49.7,68,50,29,29.91,29.91,2,0,0,0.00
2013-8-6,90.0,79.7,74.5,71.7,65.1,52.2,89,64,29,29.91,29.91,0,0,0,0.00
2013-8-7,80.2,75.8,73.8,71.3,69.3,66.4,92,81,64,29.91,29.91,0,0,0,0.00
2013-8-8,85.8,76.1,72.9,73.0,69.1,63.7,93,80,48,29.91,29.91,0,0,0,0.00
2013-8-9,90.9,80.9,74.3,74.8,68.3,59.0,95,69,36,29.91,29.91,0,0,0,0.00
2013-8-10,90.7,79.1,74.1,73.9,68.7,61.1,94,73,38,29.91,28.91,0,0,0,0.04
2013-8-11,90.0,79.5,72.7,74.7,69.6,62.5,98,75,42,29.00,28.88,0,0,0,0.24
2013-8-12,88.0,78.1,72.5,72.8,66.7,58.2,95,71,38,28.94,28.82,0,0,0,0.00
2013-8-13,83.3,75.7,71.8,71.2,67.5,60.7,95,77,48,28.85,28.76,0,0,0,0.00
2013-8-15,71.4,69.2,67.8,56.7,53.6,49.1,66,58,46,28.91,28.88,0,0,0,0.00
2013-8-16,69.3,66.5,62.6,59.7,55.6,51.0,88,68,57,28.94,28.88,0,0,0,0.04
2013-8-17,66.2,65.8,65.1,65.4,64.2,58.8,98,94,78,28.97,28.91,0,0,0,0.35
2013-8-18,73.4,68.8,65.5,69.2,66.5,64.7,98,92,76,29.03,28.94,0,0,0,0.83
2013-8-19,76.8,70.8,68.4,69.0,67.3,63.5,98,89,65,29.00,28.91,0,0,0,1.50
2013-8-20,80.4,75.4,70.9,69.6,64.6,60.2,88,70,52,29.03,28.94,0,0,0,0.00
2013-8-21,81.9,74.4,71.2,71.0,67.0,59.3,94,79,48,29.09,28.97,0,0,0,0.04
2013-8-22,91.4,76.2,70.5,72.4,67.1,59.1,97,77,34,29.00,28.88,0,0,0,0.83
2013-8-23,91.4,78.3,68.9,72.7,65.4,56.5,98,69,31,28.91,28.82,0,0,0,0.00
2013-8-24,82.0,74.6,69.6,68.3,59.5,53.8,92,61,41,29.09,28.88,0,0,0,0.00
2013-8-25,81.1,73.3,66.7,61.7,52.5,46.2,72,50,31,29.18,29.09,0,0,0,0.00
2013-8-26,85.1,73.8,65.5,64.6,55.6,48.1,86,57,29,29.15,28.97,0,0,0,0.00
2013-8-27,89.1,76.9,65.5,68.1,58.4,50.0,93,57,28,29.00,28.88,0,0,0,0.00
2013-8-28,89.8,78.5,68.9,68.1,63.0,52.6,94,63,31,28.91,28.82,0,0,0,0.00
2013-8-29,95.5,81.6,72.1,68.5,63.1,56.2,79,56,28,28.85,28.76,0,0,0,0.00
2013-8-30,88.2,78.8,74.5,70.9,67.1,61.2,86,68,41,28.88,28.76,0,0,0,0.00
2013-8-31,85.3,78.5,73.2,76.7,69.1,64.8,98,75,52,28.82,28.76,0,0,0,0.00
2013-9-1,73.2,73.2,73.2,68.1,68.1,68.1,84,84,84,28.76,28.76,0,0,0,0.00
2013-9-2,73.2,73.2,73.2,68.1,68.1,68.1,84,84,84,28.76,28.76,0,0,0,0.00
2013-9-3,73.2,73.2,73.2,68.1,68.1,68.1,84,84,84,28.76,28.76,0,0,0,0.00
2013-9-4,74.3,73.2,72.3,70.0,68.1,66.2,87,84,81,28.94,28.76,0,0,0,0.00
2013-9-5,91.9,78.1,70.2,69.1,62.4,52.2,89,63,28,28.97,28.88,0,0,0,0.00
2013-9-6,84.7,76.2,70.5,68.0,59.3,49.9,89,60,32,29.00,28.88,0,0,0,0.00
2013-9-7,84.9,75.9,68.9,67.7,58.7,47.6,89,59,30,28.97,28.85,0,0,0,0.00
2013-9-8,90.5,78.2,68.2,67.0,60.5,51.3,90,59,28,28.85,28.76,0,0,0,0.00
2013-9-9,87.3,77.8,71.6,67.6,61.4,53.3,78,60,32,28.94,28.82,0,0,0,0.00
2013-9-10,89.4,78.8,70.5,67.1,61.0,53.5,85,57,31,29.06,28.94,0,0,0,0.00
2013-9-11,88.9,78.2,70.3,70.5,62.4,50.2,91,64,28,29.06,28.94,0,0,0,0.00
2013-9-12,87.6,76.1,70.3,69.8,64.3,53.7,92,70,33,28.94,28.76,0,0,0,0.39
2013-9-13,85.5,75.4,66.0,66.3,54.9,41.9,85,53,24,28.76,28.64,0,0,0,0.00
2013-9-14,80.6,69.6,61.3,58.2,47.9,40.8,85,48,29,28.91,28.73,0,0,0,0.00
2013-9-15,85.6,72.7,64.8,67.4,55.7,50.4,83,57,31,29.00,28.91,0,0,0,0.00
2013-9-16,87.8,76.2,68.9,65.5,58.5,42.9,86,59,22,28.97,28.88,0,0,0,0.00
2013-9-17,74.3,70.8,67.5,61.2,51.4,46.4,72,50,38,29.09,28.94,0,0,0,0.00
2013-9-18,75.9,69.2,64.8,55.1,49.8,46.7,62,51,36,29.09,28.97,0,0,0,0.00
2013-9-19,83.7,72.3,64.4,63.9,55.2,47.4,88,58,31,29.03,28.91,0,0,0,0.00
2013-9-20,77.5,69.7,66.6,67.6,61.6,52.4,97,78,44,28.91,28.88,0,0,0,0.00
2013-10-4,72.0,70.2,68.9,66.3,64.2,59.1,91,82,64,28.97,28.91,0,0,0,0.00
2013-10-5,87.8,74.2,65.8,66.5,58.7,46.7,95,65,25,28.97,28.85,0,0,0,0.00
2013-10-6,78.3,73.0,66.6,67.5,58.8,52.8,98,65,42,28.88,28.82,0,0,0,0.00
2013-10-7,76.6,76.6,76.6,54.3,54.3,54.3,46,46,46,28.82,28.82,0,0,0,0.00
2013-10-8,76.6,76.6,76.6,54.3,54.3,54.3,46,46,46,28.82,28.82,0,0,0,0.00
2013-10-9,76.6,73.8,61.3,59.1,54.6,47.4,91,53,40,28.94,28.82,0,0,0,0.00
2013-10-10,78.8,66.4,57.0,58.2,49.5,42.2,95,59,30,28.97,28.82,0,0,0,0.00
2013-10-11,80.6,67.4,57.6,55.3,49.3,36.3,86,56,21,28.88,28.79,0,0,0,0.00
2013-10-12,82.8,68.6,58.6,60.2,52.3,45.3,95,61,29,28.91,28.82,0,0,0,0.00
2013-10-13,81.3,70.3,61.3,61.3,54.1,46.8,87,60,31,29.03,28.91,0,0,0,0.00
2013-10-14,73.8,68.5,63.9,60.4,54.4,49.3,88,62,43,29.03,28.94,0,0,0,0.00
2013-10-15,66.4,64.3,61.7,58.8,52.0,46.2,85,65,49,29.00,28.88,0,0,0,0.00
2013-10-16,73.6,66.3,61.7,60.5,53.4,45.7,85,65,39,28.88,28.79,0,0,0,0.00
2013-10-17,68.7,66.1,61.5,66.1,61.7,53.7,97,86,63,28.79,28.70,0,0,0,0.35
2013-10-18,69.3,61.2,53.8,60.4,53.8,45.9,98,79,44,28.85,28.76,0,0,0,0.00
2013-10-19,64.9,59.8,57.4,55.8,51.4,45.4,89,74,54,28.79,28.73,0,0,0,0.00
2013-10-20,68.5,56.6,47.1,51.2,41.1,17.4,98,65,15,28.88,28.79,0,0,0,0.00
2013-10-21,63.5,61.6,60.8,58.3,54.8,49.6,91,79,61,28.85,28.85,0,0,0,0.00
2013-10-22,71.4,62.7,57.6,59.2,49.5,37.8,94,66,31,28.85,28.67,0,0,0,0.00
2013-10-23,58.8,53.7,44.2,48.0,35.6,22.6,85,53,26,28.91,28.64,0,0,0,0.00
2013-10-24,62.4,50.6,39.9,40.8,30.5,23.5,73,49,25,29.00,28.88,0,0,0,0.00
2013-10-25,59.2,48.1,36.7,35.2,22.2,13.0,57,38,17,29.18,29.00,0,0,0,0.00
2013-10-26,51.6,43.4,38.5,28.2,25.0,20.8,63,49,33,29.15,29.09,0,0,0,0.00
2013-10-27,60.3,58.4,51.3,51.8,46.5,26.5,82,66,38,29.12,28.94,0,0,0,0.00
2013-10-28,65.8,60.9,56.3,54.8,50.7,43.2,91,70,45,29.09,28.97,0,0,0,0.08
2013-10-29,59.7,59.7,59.7,54.2,54.2,54.2,82,82,82,29.06,29.06,0,0,0,0.00
2013-10-30,59.7,59.7,59.7,54.2,54.2,54.2,82,82,82,29.06,29.06,0,0,0,0.00
2013-10-31,59.7,59.7,59.7,54.2,54.2,54.2,82,82,82,29.06,29.06,0,0,0,0.00
2013-11-1,59.7,59.7,59.7,54.2,54.2,54.2,82,82,82,29.06,29.06,0,0,0,0.00
2013-11-2,59.7,58.8,51.1,54.2,49.6,26.6,82,74,30,29.06,28.76,0,0,0,0.00
2013-11-3,67.1,54.6,46.8,41.3,31.5,22.4,66,44,20,29.12,28.88,0,0,0,0.00
2013-11-4,52.7,49.7,48.7,32.7,29.4,24.9,52,45,39,29.24,29.12,0,0,0,0.00
2013-11-6,71.2,69.8,66.9,46.7,45.2,43.8,45,41,38,29.06,28.97,0,0,0,0.00
2013-11-7,64.8,54.5,46.0,42.6,27.0,21.6,47,36,21,29.00,28.88,0,0,0,0.04
2013-11-8,66.4,51.0,41.5,38.0,22.3,14.4,72,35,15,29.15,29.00,0,0,0,0.00
2013-11-9,58.1,50.8,43.3,37.7,24.9,19.6,71,37,25,29.18,29.03,0,0,0,0.00
2013-11-10,73.4,59.0,48.7,35.2,27.4,17.3,53,32,14,29.09,28.97,0,0,0,0.00
2013-11-11,66.9,54.4,46.6,41.8,30.3,20.0,81,44,20,29.15,28.97,0,0,0,0.00
2013-11-12,63.3,48.8,34.5,38.6,25.4,9.9,68,42,24,29.24,28.94,0,0,0,0.00
2013-11-13,53.1,39.9,30.2,27.9,13.5,4.4,66,36,18,29.38,29.24,0,0,0,0.00
2013-11-14,61.0,45.9,34.5,34.9,23.5,11.5,92,49,16,29.29,29.12,0,0,0,0.00
2013-11-15,51.6,48.0,43.0,48.1,34.8,15.9,89,64,27,29.12,29.00,0,0,0,0.12
2013-11-16,59.4,55.6,51.3,54.3,50.6,47.0,98,84,71,29.06,28.97,0,0,0,0.00
2013-11-17,61.7,59.9,58.1,61.1,56.6,50.3,98,89,72,29.00,28.76,0,0,0,0.20
2013-11-18,70.3,62.4,52.5,67.1,40.7,21.1,98,52,17,28.85,28.70,0,0,0,0.08
2013-11-19,60.3,52.0,43.5,31.2,25.6,19.9,52,36,25,29.00,28.85,0,0,0,0.00
2013-11-20,53.8,48.5,42.6,29.2,25.4,20.9,53,40,30,29.18,29.00,0,0,0,0.00
2013-11-21,51.1,49.7,48.0,48.9,39.0,25.4,96,68,38,29.24,29.15,0,0,0,0.00
2013-11-22,60.3,55.6,50.2,57.7,52.5,48.4,98,90,71,29.18,29.00,0,0,0,0.16
2013-11-23,60.6,54.5,41.0,58.3,39.0,16.8,98,61,27,29.06,28.94,0,0,0,0.00
2013-11-24,49.5,40.0,31.3,17.6,9.9,4.4,42,30,19,29.26,29.03,0,0,0,0.00
2013-11-25,42.4,36.9,34.3,30.4,14.6,6.7,83,42,26,29.29,29.06,0,0,0,0.00
2013-11-26,50.9,42.5,34.0,50.4,41.4,28.7,98,96,79,29.06,28.47,0,0,0,1.97
2013-11-27,46.4,40.4,36.1,44.4,32.2,19.0,94,73,48,28.70,28.47,0,0,0,0.12
2013-11-30,51.1,45.5,43.5,19.7,17.0,15.4,38,32,26,29.20,29.15,0,0,0,0.00
2013-12-1,56.7,48.1,43.2,33.3,23.4,14.8,58,38,27,29.15,28.85,0,0,0,0.00
2013-12-2,52.2,49.5,45.7,51.1,40.9,26.3,96,74,42,28.85,28.64,0,0,0,0.12
2013-12-3,54.1,52.7,51.1,53.6,52.0,50.5,98,97,93,28.76,28.67,0,0,0,0.35
2013-12-4,61.7,57.4,53.8,61.1,56.8,53.2,98,98,92,28.88,28.73,0,0,0,0.16
2013-12-5,64.9,62.8,60.4,64.4,62.3,59.9,98,98,98,28.91,28.85,0,0,0,0.08
2013-12-30,41.7,41.3,41.0,31.2,30.3,29.4,66,65,63,29.00,28.97,0,0,0,0.00
2013-12-31,49.6,40.6,35.4,31.0,21.5,8.1,74,49,19,29.15,28.97,0,0,0,0.00
2014-1-1,49.8,43.2,35.8,28.8,22.2,17.5,62,44,30,29.15,28.94,0,0,0,0.00
2014-1-2,48.7,41.1,25.2,47.1,31.3,7.2,98,70,42,28.94,28.56,0,0,0,0.24